[[{"header":{"parameterUnit":"m.s-1","parameterCategory":1,"la1":30.2991,"la2":30.254,"lo1":-89.0895,"lo2":-89.0444,"dy":0.0017,"dx":0.0017,"nx":28,"ny":28,"refTime":"2025-05-16T03:00:00:Z","depth":0,"parameterNumber":2,"parameterNumberName":"U-component_of_WINDS"},"data":[0,0,0,0,0,0,0,0,0,0,0,0,0,0,0,0,0,0,0,0,0,0,0,0,0,0,0,0,0,0,0,0,0,0,0,0,0,0,0,0,0,0,0,0,0,0,0,0,0,0,0,0,0,0,0,0,0,0,-0.1448,-0.1446,0,-0.1331,-0.133,-0.1329,-0.1256,-0.1255,-0.1255,-0.1254,-0.1137,-0.1135,-0.1132,0,0,0,0,0,0,0,0,0,0,0,0,0,-0.1607,-0.1605,-0.1448,-0.1446,-0.1445,-0.1332,-0.133,-0.1328,-0.1256,-0.1255,-0.1255,-0.1254,-0.1138,-0.1135,-0.1132,0,0,0,0,0,0,0,0,0,0,0,0,0,-0.1519,-0.1604,-0.1448,-0.1395,-0.1389,-0.1332,-0.133,-0.1328,-0.1256,-0.1255,-0.1254,-0.1254,-0.1139,-0.1135,-0.1131,-0.1118,0,0,-0.1119,-0.1117,0,0,0,0,0,0,0,0,-0.1524,-0.1514,-0.1404,-0.1398,-0.1392,-0.1307,-0.1343,-0.1258,-0.1256,-0.1306,-0.1254,-0.1254,-0.1194,-0.1186,-0.1165,-0.1113,-0.1108,-0.1118,-0.1116,-0.1114,-0.1113,0,0,0,0,0,0,0,-0.1531,-0.1518,-0.1402,-0.1403,-0.1395,-0.1377,-0.1364,-0.1327,-0.1255,-0.1302,-0.1296,-0.1283,-0.1191,-0.1169,-0.1162,-0.1106,-0.1118,-0.1115,-0.1112,-0.1111,-0.1035,-0.1036,0,0,0,0,0,0,-0.1545,-0.1524,-0.1405,-0.1398,-0.1458,-0.1375,-0.136,-0.1335,-0.1256,-0.1243,-0.1284,-0.128,-0.1177,-0.1167,-0.1158,-0.1135,-0.1114,-0.111,-0.1108,-0.1035,-0.1035,-0.1036,0,0,0,0,0,0,-0.1549,-0.1535,-0.141,-0.1459,-0.1442,-0.1372,-0.1345,-0.1333,-0.1311,-0.1242,-0.1229,-0.1275,-0.1176,-0.1163,-0.1128,-0.1131,-0.1108,-0.1105,-0.1034,-0.1035,-0.1036,-0.1093,0,0,0,0,0,0,-0.1554,-0.1537,-0.1531,-0.146,-0.144,-0.1382,-0.1345,-0.1331,-0.1304,-0.1299,-0.123,-0.1218,-0.1174,-0.1135,-0.1124,-0.1125,-0.1101,-0.1034,-0.1035,-0.1035,-0.109,-0.1095,-0.11,0,0,0,0,0,-0.1559,-0.1553,-0.1531,-0.1517,-0.1431,-0.1383,-0.1371,-0.132,-0.1305,-0.1298,-0.1254,-0.1221,-0.1133,-0.1132,-0.1119,-0.1118,-0.1033,-0.1034,-0.1035,-0.1088,-0.1094,-0.11,0,0,0,0,0,0,-0.1628,-0.1543,-0.1518,-0.1488,-0.1443,-0.137,-0.1361,-0.1329,-0.1288,-0.1284,-0.1223,-0.1208,-0.1178,-0.1145,-0.1146,-0.1101,-0.1079,-0.1078,-0.1123,-0.1129,-0.1133,-0.1141,-0.1098,0,0,0,0,0,-0.1639,-0.1606,-0.1534,-0.1515,-0.1493,-0.1431,-0.1408,-0.1373,-0.1324,-0.1305,-0.1257,-0.1212,-0.1173,-0.1149,-0.1111,-0.1086,-0.1069,-0.1079,-0.1084,-0.1088,-0.1087,-0.1069,-0.1072,-0.1039,-0.1039,-0.1039,0,0,-0.1663,-0.1612,-0.1595,-0.1527,-0.1488,-0.1455,-0.1416,-0.1383,-0.1358,-0.13,-0.1263,-0.1227,-0.1172,-0.1141,-0.1125,-0.1112,-0.1092,-0.1089,-0.1093,-0.109,-0.1071,-0.1074,-0.1077,-0.104,-0.104,-0.104,0,0,-0.1688,-0.1647,-0.1625,-0.1587,-0.1528,-0.1486,-0.1481,-0.1413,-0.1386,-0.1348,-0.1303,-0.1273,-0.1209,-0.117,-0.1143,-0.1153,-0.112,-0.1142,-0.1166,-0.1149,-0.1152,-0.1154,-0.1155,-0.1157,-0.1142,-0.1142,-0.1142,0,-0.1725,-0.1673,-0.1619,-0.1588,-0.1558,-0.1503,-0.148,-0.1446,-0.1378,-0.1358,-0.1345,-0.1262,-0.1221,-0.118,-0.1182,-0.1162,-0.1154,-0.1149,-0.1156,-0.1157,-0.1158,-0.1159,-0.116,-0.1145,-0.1144,-0.1144,-0.1144,0,-0.172,-0.1685,-0.1675,-0.1608,-0.1578,-0.1552,-0.1493,-0.1469,-0.1436,-0.1396,-0.1357,-0.1306,-0.1255,-0.1243,-0.1211,-0.1196,-0.119,-0.1167,-0.1143,-0.1165,-0.1165,-0.1165,-0.1149,-0.1148,-0.1147,-0.1146,0,0,-0.1785,-0.1688,-0.1685,-0.1653,-0.1583,-0.1555,-0.1526,-0.1475,-0.1455,-0.141,-0.1383,-0.1329,-0.1307,-0.1276,-0.1239,-0.1225,-0.1234,-0.1203,-0.1201,-0.1209,-0.1212,-0.1229,-0.123,-0.1212,-0.1212,-0.1212,-0.1216,0,-0.1799,-0.1742,-0.1691,-0.1653,-0.1619,-0.1566,-0.154,-0.1495,-0.1457,-0.1422,-0.138,-0.1342,-0.1317,-0.1297,-0.1281,-0.1236,-0.1233,-0.1235,-0.1186,-0.1185,-0.1199,-0.123,-0.1247,-0.1254,-0.1216,-0.1216,-0.1216,0,-0.1807,-0.1762,-0.172,-0.1652,-0.1636,-0.1613,-0.1561,-0.153,-0.1477,-0.145,-0.1414,-0.1376,-0.1342,-0.1323,-0.1275,-0.1278,-0.1255,-0.123,-0.1229,-0.1221,-0.1201,-0.1221,-0.1255,-0.1255,-0.1216,-0.1216,-0.1216,0,-0.1856,-0.1785,-0.175,-0.1725,-0.1646,-0.1631,-0.1597,-0.1543,-0.1515,-0.147,-0.1451,-0.1404,-0.1378,-0.1342,-0.1291,-0.1282,-0.1248,-0.1225,-0.1224,-0.1225,-0.1218,-0.1219,-0.1246,-0.1206,-0.1206,-0.1206,-0.1206,0,-0.1875,-0.1851,-0.1771,-0.1749,-0.172,-0.1663,-0.1636,-0.1598,-0.155,-0.152,-0.1472,-0.1445,-0.1381,-0.1346,-0.1307,-0.1272,-0.1261,-0.1238,-0.1227,-0.1241,-0.1244,-0.1224,-0.1221,-0.1207,-0.1207,-0.1207,-0.1206,0,-0.1924,-0.187,-0.1828,-0.1755,-0.1736,-0.1718,-0.1656,-0.1633,-0.1592,-0.1554,-0.1542,-0.1478,-0.1434,-0.138,-0.132,-0.1293,-0.1262,-0.1247,-0.128,-0.1273,-0.1274,-0.1274,-0.1288,-0.1286,-0.125,-0.1251,-0.1251,0,-0.1939,-0.1919,-0.1844,-0.1819,-0.1786,-0.1749,-0.1719,-0.1662,-0.1633,-0.157,-0.1555,-0.1507,-0.1466,-0.1399,-0.1347,-0.13,-0.1283,-0.1291,-0.1275,-0.1289,-0.128,-0.1281,-0.1278,-0.1295,-0.1295,-0.1296,-0.1296,0,-0.1971,-0.1944,-0.1903,-0.1852,-0.1818,-0.1776,-0.1731,-0.1715,-0.1648,-0.1618,-0.1572,-0.154,-0.1478,-0.1431,-0.1377,-0.1343,-0.1308,-0.1302,-0.1299,-0.1311,-0.133,-0.1318,-0.1288,-0.1301,-0.1301,-0.1301,-0.13,-0.13,-0.2002,-0.198,-0.1923,-0.1879,-0.1839,-0.1798,-0.1772,-0.1727,-0.1687,-0.1631,-0.16,-0.1555,-0.1501,-0.1425,-0.1392,-0.1356,-0.1343,-0.1339,-0.1338,-0.1337,-0.134,-0.1337,-0.1346,-0.1346,-0.1346,-0.1345,-0.1345,0,-0.2029,-0.1989,-0.1949,-0.1887,-0.1852,-0.1822,-0.1771,-0.1743,-0.1703,-0.1656,-0.1616,-0.1563,-0.1517,-0.1461,-0.1411,-0.1393,-0.1376,-0.1381,-0.1381,-0.1373,-0.1355,-0.1362,-0.1396,-0.1396,-0.1396,-0.1396,-0.1396,-0.1396,-0.2039,-0.2001,-0.1967,-0.1909,-0.1869,-0.1823,-0.1796,-0.1758,-0.172,-0.1662,-0.1623,-0.1586,-0.1535,-0.1481,-0.1437,-0.1422,-0.1405,-0.1416,-0.1396,-0.138,-0.1375,-0.1371,-0.1377,-0.1413,-0.1413,-0.1416,-0.1416,-0.1416]},{"header":{"parameterUnit":"m.s-1","parameterCategory":1,"la1":30.2991,"la2":30.254,"lo1":-89.0895,"lo2":-89.0444,"dy":0.0017,"dx":0.0017,"nx":28,"ny":28,"refTime":"2025-05-16T03:00:00:Z","depth":0,"parameterNumber":3,"parameterNumberName":"V-component_of_WINDS"},"data":[0,0,0,0,0,0,0,0,0,0,0,0,0,0,0,0,0,0,0,0,0,0,0,0,0,0,0,0,0,0,0,0,0,0,0,0,0,0,0,0,0,0,0,0,0,0,0,0,0,0,0,0,0,0,0,0,0,0,4.7343,4.7343,0,4.7315,4.7315,4.7315,4.7295,4.7295,4.7295,4.7295,4.7264,4.7263,4.7263,0,0,0,0,0,0,0,0,0,0,0,0,0,4.7379,4.7379,4.7343,4.7343,4.7343,4.7315,4.7315,4.7314,4.7295,4.7295,4.7295,4.7295,4.7264,4.7263,4.7263,0,0,0,0,0,0,0,0,0,0,0,0,0,4.7359,4.7379,4.7343,4.733,4.7328,4.7315,4.7315,4.7314,4.7295,4.7295,4.7295,4.7295,4.7264,4.7263,4.7262,4.726,0,0,4.7259,4.7259,0,0,0,0,0,0,0,0,4.736,4.7357,4.7332,4.7331,4.7329,4.7309,4.7316,4.7296,4.7295,4.7308,4.7295,4.7295,4.7279,4.7277,4.7272,4.7258,4.7257,4.7259,4.7258,4.7258,4.7258,0,0,0,0,0,0,0,4.7361,4.7358,4.7332,4.7332,4.733,4.7325,4.7322,4.7312,4.7295,4.7307,4.7305,4.7302,4.7278,4.7273,4.7271,4.7257,4.7259,4.7258,4.7258,4.7257,4.7241,4.7241,0,0,0,0,0,0,4.7365,4.736,4.7333,4.7331,4.7344,4.7324,4.7321,4.7315,4.7295,4.7292,4.7303,4.7302,4.7275,4.7272,4.727,4.7266,4.7258,4.7257,4.7256,4.7241,4.7241,4.7241,0,0,0,0,0,0,4.7366,4.7363,4.7334,4.7345,4.7341,4.7324,4.7318,4.7315,4.731,4.7292,4.7288,4.7301,4.7274,4.7271,4.7263,4.7265,4.7257,4.7256,4.724,4.7241,4.7241,4.7259,0,0,0,0,0,0,4.7367,4.7363,4.7362,4.7345,4.7341,4.7328,4.7318,4.7315,4.7308,4.7307,4.7289,4.7286,4.7274,4.7265,4.7262,4.7263,4.7255,4.724,4.7241,4.7241,4.7258,4.7259,4.7261,0,0,0,0,0,4.7368,4.7368,4.7362,4.7359,4.7339,4.7328,4.7326,4.7313,4.7308,4.7307,4.7296,4.7286,4.7265,4.7264,4.7261,4.7262,4.724,4.724,4.7241,4.7257,4.7259,4.7261,0,0,0,0,0,0,4.7384,4.7365,4.7359,4.7353,4.7343,4.7325,4.7323,4.7315,4.7305,4.7304,4.7288,4.7284,4.7278,4.7269,4.7268,4.7259,4.7251,4.7251,4.7265,4.7267,4.7268,4.7271,4.7254,0,0,0,0,0,4.7388,4.7381,4.7364,4.736,4.7356,4.7341,4.7335,4.7326,4.7315,4.731,4.7298,4.7286,4.7277,4.7271,4.7262,4.7256,4.7253,4.7255,4.7257,4.7258,4.7259,4.7256,4.7258,4.7243,4.7243,4.7243,0,0,4.7393,4.7382,4.7379,4.7363,4.7354,4.7348,4.7337,4.733,4.7325,4.7308,4.73,4.7291,4.7277,4.7271,4.7267,4.7263,4.7262,4.7259,4.726,4.726,4.7257,4.7258,4.7259,4.7243,4.7243,4.7243,0,0,4.7401,4.7391,4.7388,4.7379,4.7366,4.7356,4.7355,4.7339,4.7333,4.7325,4.7313,4.7306,4.729,4.7281,4.7275,4.728,4.7271,4.7277,4.7285,4.7283,4.7284,4.7285,4.7288,4.7289,4.7277,4.7277,4.7277,0,4.7409,4.7399,4.7387,4.7381,4.7375,4.7361,4.7357,4.7349,4.7333,4.7329,4.7325,4.7306,4.7295,4.7287,4.7289,4.7283,4.7282,4.7279,4.7285,4.7286,4.7287,4.7289,4.729,4.7278,4.7278,4.7278,4.7278,0,4.7411,4.7404,4.7403,4.7389,4.7383,4.7378,4.7364,4.7359,4.7351,4.7342,4.7334,4.7321,4.7309,4.7307,4.7298,4.7297,4.7295,4.7288,4.7281,4.7289,4.7291,4.7292,4.7279,4.7279,4.7279,4.7279,0,0,4.7427,4.7408,4.7407,4.7401,4.7386,4.7381,4.7375,4.7365,4.7361,4.7351,4.7346,4.7334,4.7328,4.732,4.731,4.7308,4.7315,4.7302,4.7301,4.7305,4.7314,4.732,4.7321,4.7309,4.7309,4.7309,4.7316,0,4.7433,4.7423,4.7412,4.7407,4.7401,4.7388,4.7383,4.7374,4.7365,4.7358,4.7348,4.734,4.7332,4.7328,4.7325,4.7314,4.7316,4.7314,4.7304,4.7304,4.7309,4.7322,4.7328,4.7335,4.7316,4.7316,4.7316,0,4.7438,4.7429,4.7424,4.741,4.7407,4.7404,4.7393,4.7387,4.7376,4.737,4.7362,4.7352,4.7346,4.7339,4.7331,4.733,4.7325,4.7319,4.7319,4.7318,4.7311,4.7322,4.7337,4.7338,4.7317,4.7317,4.7317,0,4.7451,4.7438,4.7433,4.7429,4.7413,4.741,4.7404,4.7392,4.7387,4.7378,4.7374,4.7364,4.7359,4.7351,4.7339,4.7335,4.7332,4.7324,4.7327,4.7328,4.7327,4.7328,4.7342,4.7324,4.7324,4.7324,4.7324,0,4.7459,4.7456,4.7439,4.7436,4.7433,4.742,4.7417,4.7409,4.7399,4.7394,4.7382,4.7378,4.7362,4.7355,4.7346,4.7341,4.7338,4.7333,4.7331,4.7334,4.7335,4.7331,4.7331,4.7324,4.7324,4.7324,4.7324,0,4.7473,4.7462,4.7456,4.7442,4.7438,4.7436,4.7424,4.7421,4.7412,4.7406,4.7404,4.7389,4.7382,4.7369,4.7357,4.735,4.7347,4.7343,4.7351,4.735,4.7354,4.7354,4.7367,4.7368,4.7349,4.7349,4.7349,0,4.7479,4.7476,4.7463,4.7459,4.7453,4.7447,4.7442,4.7429,4.7424,4.7412,4.7411,4.7402,4.7395,4.7383,4.7371,4.7362,4.7358,4.7363,4.7356,4.736,4.7359,4.7359,4.7359,4.7364,4.7365,4.7365,4.7365,0,4.749,4.7485,4.7479,4.7471,4.7466,4.7458,4.7451,4.7448,4.7434,4.7429,4.7421,4.7416,4.7404,4.7396,4.7386,4.7378,4.737,4.7367,4.7368,4.7372,4.7377,4.7375,4.7356,4.7367,4.7367,4.7367,4.7367,4.7367,4.7501,4.7499,4.7489,4.7483,4.7476,4.7469,4.7466,4.7457,4.7451,4.7441,4.7434,4.7427,4.7417,4.7402,4.7395,4.739,4.7386,4.7386,4.7386,4.7386,4.7388,4.7378,4.7388,4.7387,4.7387,4.7387,4.7387,0,4.7513,4.7506,4.75,4.7491,4.7486,4.7479,4.747,4.7466,4.7461,4.7452,4.7445,4.7437,4.743,4.7418,4.7409,4.7407,4.7403,4.7406,4.7406,4.7404,4.7392,4.7393,4.7409,4.7409,4.7409,4.7409,4.7409,4.7409,4.7518,4.7515,4.7509,4.7502,4.7495,4.7489,4.7485,4.7479,4.7472,4.7464,4.7458,4.7451,4.7441,4.7432,4.7425,4.7421,4.7419,4.7423,4.7419,4.7407,4.7405,4.7403,4.7404,4.7422,4.7422,4.7431,4.7432,4.7432]}]]